Tracking 17857 objects as of 29-September-2016
HD Live streaming from Space Station
objects crossing your sky now

INSAT 1C

Track INSAT 1C now!
INSAT 1C is classified as:


NORAD ID: 19330
Int'l Code: 1988-063A
Perigee: 35,760.6 km
Apogee: 35,804.1 km
Inclination: 15.0 °
Period: 1,435.5 minutes
Semi major axis: 42153 km
RCS: 1.9952 m2 (large)
Launch date: July 21, 1988
Source: India (IND)
Launch site: FRENCH GUIANA (FRGUI)
Your satellite tracking list
Your tracking list is empty





NASA's NSSDC Master Catalog

Two Line Element Set (TLE):
1 19330U 88063A   16269.74641616 -.00000067  00000-0  00000+0 0  9993
2 19330  14.9758 358.9796 0005157 141.9244 200.1927  1.00312556 84604
Source of the keplerian elements: AFSPC

N2YO: 558